Location: Lecco
(45.8566°N, 9.3977°E)
Time: 20:57:34
(UTC+02:00)

S-56A Canister/Altair - Pass Details

Date: 25 July 2019
Orbit: 633 x 2499 km, 38.9° (Epoch: 17 August)

Event Time Altitude Azimuth Distance (km) Brightness Sun altitude
Rises 11:45:43 0° 279° (W) 5,671 11.7 56.3°
Reaches altitude 10° 11:49:20 10° 274° (W) 4,840 11.5 56.8°
Maximum altitude 12:02:44 49° 206° (SSW) 3,009 11.5 58.4°
Drops below altitude 10° 12:16:26 10° 138° (SE) 4,929 12.3 59.9°
Sets 12:20:10 0° 133° (SE) 5,777 12.4 60.2°
